Date,TemperatureHighF,TemperatureAvgF,TemperatureLowF,DewpointHighF,DewpointAvgF,DewpointLowF,HumidityHigh,HumidityAvg,HumidityLow,PressureMaxIn,PressureMinIn,WindSpeedMaxMPH,WindSpeedAvgMPH,GustSpeedMaxMPH,PrecipitationSumIn
2013-1-1,11,5,1,-100,-100,-100,0,0,100,0.00,40.00,0,-999,0,0.00
2013-1-2,27,18,2,-100,-100,-100,0,0,100,0.00,40.00,0,-999,0,0.00
2013-1-3,29,20,4,-100,-100,-100,0,0,100,0.00,40.00,0,-999,0,0.00
2013-1-4,35,20,4,-100,-100,-100,0,0,100,0.00,40.00,0,-999,0,0.00
2013-1-5,35,26,17,-100,-100,-100,0,0,100,0.00,40.00,0,-999,0,0.00
2013-1-6,27,18,10,-100,-100,-100,0,0,100,0.00,40.00,0,-999,0,0.00
2013-1-7,43,28,16,-100,-100,-100,0,0,100,0.00,40.00,0,-999,0,0.00
2013-1-8,44,34,23,-100,-100,-100,0,0,100,0.00,40.00,0,-999,0,0.00
2013-1-9,43,32,27,-100,-100,-100,0,0,100,0.00,40.00,0,-999,0,0.00
2013-1-10,36,31,26,-100,-100,-100,0,0,100,0.00,40.00,0,-999,0,0.00
2013-1-11,54,43,32,-100,-100,-100,0,0,100,0.00,40.00,0,-999,0,0.00
2013-1-12,53,27,14,-100,-100,-100,0,0,100,0.00,40.00,0,-999,0,0.00
2013-1-13,12,7,3,-100,-100,-100,0,0,100,0.00,40.00,0,-999,0,0.00
2013-1-14,29,14,2,-100,-100,-100,0,0,100,0.00,40.00,0,-999,0,0.00
2013-1-15,34,20,10,-100,-100,-100,0,0,100,0.00,40.00,0,-999,0,0.00
2013-1-16,45,33,16,-100,-100,-100,0,0,100,0.00,40.00,0,-999,0,0.00
2013-1-17,36,22,14,-100,-100,-100,0,0,100,0.00,40.00,0,-999,0,0.00
2013-1-18,58,39,19,-100,-100,-100,0,0,100,0.00,40.00,0,-999,0,0.00
2013-1-19,54,40,31,-100,-100,-100,0,0,100,0.00,40.00,0,-999,0,0.00
2013-1-20,12,8,3,-100,-100,-100,0,0,100,0.00,40.00,0,-999,0,0.00
2013-1-21,3,-1,-6,-100,-100,-100,0,0,100,0.00,40.00,0,-999,0,0.00
2013-1-22,12,8,1,-100,-100,-100,0,0,100,0.00,40.00,0,-999,0,0.00
2013-1-23,26,13,1,-100,-100,-100,0,0,100,0.00,40.00,0,-999,0,0.00
2013-1-24,13,4,-3,-100,-100,-100,0,0,100,0.00,40.00,0,-999,0,0.00
2013-1-25,37,25,10,-100,-100,-100,0,0,100,0.00,40.00,0,-999,0,0.00
2013-1-26,32,15,1,-100,-100,-100,0,0,100,0.00,40.00,0,-999,0,0.00
2013-1-27,38,28,25,-100,-100,-100,0,0,100,0.00,40.00,0,-999,0,0.00
2013-1-28,40,36,32,-100,-100,-100,0,0,100,0.00,40.00,0,-999,0,0.00
2013-1-29,62,40,29,-100,-100,-100,0,0,100,0.00,40.00,0,-999,0,0.00
2013-1-30,28,18,10,-100,-100,-100,0,0,100,0.00,40.00,0,-999,0,0.00
2013-1-31,1,-1,-7,-100,-100,-100,0,0,100,0.00,40.00,0,-999,0,0.00
2013-2-1,21,4,-11,-100,-100,-100,0,0,100,0.00,40.00,0,-999,0,0.00
2013-2-2,22,18,14,-100,-100,-100,0,0,100,0.00,40.00,0,-999,0,0.00
2013-2-3,34,24,12,-100,-100,-100,0,0,100,0.00,40.00,0,-999,0,0.00
2013-2-4,30,24,14,-100,-100,-100,0,0,100,0.00,40.00,0,-999,0,0.00
2013-2-5,40,30,16,-100,-100,-100,0,0,100,0.00,40.00,0,-999,0,0.00
2013-2-6,41,31,19,-100,-100,-100,0,0,100,0.00,40.00,0,-999,0,0.00
2013-2-7,36,31,25,-100,-100,-100,0,0,100,0.00,40.00,0,-999,0,0.00
2013-2-8,26,23,22,-100,-100,-100,0,0,100,0.00,40.00,0,-999,0,0.00
2013-2-9,32,26,22,-100,-100,-100,0,0,100,0.00,40.00,0,-999,0,0.00
2013-2-10,52,35,29,-100,-100,-100,0,0,100,0.00,40.00,0,-999,0,0.00
2013-2-11,29,27,24,-100,-100,-100,0,0,100,0.00,40.00,0,-999,0,0.00
2013-2-12,44,30,20,-100,-100,-100,0,0,100,0.00,40.00,0,-999,0,0.00
2013-2-13,51,35,21,-100,-100,-100,0,0,100,0.00,40.00,0,-999,0,0.00
2013-2-14,43,35,30,-100,-100,-100,0,0,100,0.00,40.00,0,-999,0,0.00
2013-2-15,25,19,11,-100,-100,-100,0,0,100,0.00,40.00,0,-999,0,0.00
2013-2-16,32,24,7,-100,-100,-100,0,0,100,0.00,40.00,0,-999,0,0.00
2013-2-17,43,36,14,-100,-100,-100,0,0,100,0.00,40.00,0,-999,0,0.00
2013-2-18,42,30,12,-100,-100,-100,0,0,100,0.00,40.00,0,-999,0,0.00
2013-2-19,18,11,6,-100,-100,-100,0,0,100,0.00,40.00,0,-999,0,0.00
2013-2-20,18,8,-4,-100,-100,-100,0,0,100,0.00,40.00,0,-999,0,0.00
2013-2-21,21,17,10,-100,-100,-100,0,0,100,0.00,40.00,0,-999,0,0.00
2013-2-22,25,20,16,-100,-100,-100,0,0,100,0.00,40.00,0,-999,0,0.00
2013-2-23,29,21,7,-100,-100,-100,0,0,100,0.00,40.00,0,-999,0,0.00
2013-2-24,42,26,7,-100,-100,-100,0,0,100,0.00,40.00,0,-999,0,0.00
2013-2-25,39,31,21,-100,-100,-100,0,0,100,0.00,40.00,0,-999,0,0.00
2013-2-26,32,29,25,-100,-100,-100,0,0,100,0.00,40.00,0,-999,0,0.00
2013-2-27,29,26,22,-100,-100,-100,0,0,100,0.00,40.00,0,-999,0,0.00
2013-2-28,32,24,19,-100,-100,-100,0,0,100,0.00,40.00,0,-999,0,0.00
2013-3-1,30,23,20,-100,-100,-100,0,0,100,0.00,40.00,0,-999,0,0.00
2013-3-2,30,22,14,-100,-100,-100,0,0,100,0.00,40.00,0,-999,0,0.00
2013-3-3,30,25,16,-100,-100,-100,0,0,100,0.00,40.00,0,-999,0,0.00
2013-3-4,33,26,21,-100,-100,-100,0,0,100,0.00,40.00,0,-999,0,0.00
2013-3-5,28,25,22,-100,-100,-100,0,0,100,0.00,40.00,0,-999,0,0.00
2013-3-6,29,22,16,-100,-100,-100,0,0,100,0.00,40.00,0,-999,0,0.00
2013-3-7,29,20,10,-100,-100,-100,0,0,100,0.00,40.00,0,-999,0,0.00
2013-3-8,40,27,17,-100,-100,-100,0,0,100,0.00,40.00,0,-999,0,0.00
2013-3-9,40,36,33,-100,-100,-100,0,0,100,0.00,40.00,0,-999,0,0.00
2013-3-10,36,31,28,-100,-100,-100,0,0,100,0.00,40.00,0,-999,0,0.00
2013-3-11,28,24,20,-100,-100,-100,0,0,100,0.00,40.00,0,-999,0,0.00
2013-3-12,31,22,14,-100,-100,-100,0,0,100,0.00,40.00,0,-999,0,0.00
2013-3-13,33,24,12,-100,-100,-100,0,0,100,0.00,40.00,0,-999,0,0.00
2013-3-14,54,32,22,-100,-100,-100,0,0,100,0.00,40.00,0,-999,0,0.00
2013-3-15,62,44,27,-100,-100,-100,0,0,100,0.00,40.00,0,-999,0,0.00
2013-3-16,36,31,24,-100,-100,-100,0,0,100,0.00,40.00,0,-999,0,0.00
2013-3-17,36,27,18,-100,-100,-100,0,0,100,0.00,40.00,0,-999,0,0.00
2013-3-18,32,27,18,-100,-100,-100,0,0,100,0.00,40.00,0,-999,0,0.00
2013-3-19,40,24,12,-100,-100,-100,0,0,100,0.00,40.00,0,-999,0,0.00
2013-3-20,23,17,8,-100,-100,-100,0,0,100,0.00,40.00,0,-999,0,0.00
2013-3-21,32,21,7,-100,-100,-100,0,0,100,0.00,40.00,0,-999,0,0.00
2013-3-22,37,25,14,-100,-100,-100,0,0,100,0.00,40.00,0,-999,0,0.00
2013-3-23,36,29,23,-100,-100,-100,0,0,100,0.00,40.00,0,-999,0,0.00
2013-3-24,30,27,24,-100,-100,-100,0,0,100,0.00,40.00,0,-999,0,0.00
2013-3-25,36,27,23,-100,-100,-100,0,0,100,0.00,40.00,0,-999,0,0.00
2013-3-26,39,27,17,-100,-100,-100,0,0,100,0.00,40.00,0,-999,0,0.00
2013-3-27,46,31,18,-100,-100,-100,0,0,100,0.00,40.00,0,-999,0,0.00
2013-3-28,58,41,24,-100,-100,-100,0,0,100,0.00,40.00,0,-999,0,0.00
2013-3-29,66,50,27,-100,-100,-100,0,0,100,0.00,40.00,0,-999,0,0.00
2013-3-30,59,49,43,-100,-100,-100,0,0,100,0.00,40.00,0,-999,0,0.00
2013-3-31,56,45,32,-100,-100,-100,0,0,100,0.00,40.00,0,-999,0,0.00
2013-4-1,40,30,21,-100,-100,-100,0,0,100,0.00,40.00,0,-999,0,0.00
2013-4-2,48,33,18,-100,-100,-100,0,0,100,0.00,40.00,0,-999,0,0.00
2013-4-3,53,32,21,-100,-100,-100,0,0,100,0.00,40.00,0,-999,0,0.00
2013-4-4,69,44,25,-100,-100,-100,0,0,100,0.00,40.00,0,-999,0,0.00
2013-4-5,65,49,33,-100,-100,-100,0,0,100,0.00,40.00,0,-999,0,0.00
2013-4-6,67,60,54,-100,-100,-100,0,0,100,0.00,40.00,0,-999,0,0.00
2013-4-7,73,55,32,-100,-100,-100,0,0,100,0.00,40.00,0,-999,0,0.00
2013-4-8,79,65,52,-100,-100,-100,0,0,100,0.00,40.00,0,-999,0,0.00
2013-4-9,75,61,45,-100,-100,-100,0,0,100,0.00,40.00,0,-999,0,0.00
2013-4-10,42,40,40,-100,-100,-100,0,0,100,0.00,40.00,0,-999,0,0.00
2013-4-11,45,39,36,-100,-100,-100,0,0,100,0.00,40.00,0,-999,0,0.00
2013-4-12,37,34,32,-100,-100,-100,0,0,100,0.00,40.00,0,-999,0,0.00
2013-4-13,54,39,25,-100,-100,-100,0,0,100,0.00,40.00,0,-999,0,0.00
2013-4-14,68,53,41,-100,-100,-100,0,0,100,0.00,40.00,0,-999,0,0.00
2013-4-15,51,44,40,-100,-100,-100,0,0,100,0.00,40.00,0,-999,0,0.00
2013-4-16,54,44,29,-100,-100,-100,0,0,100,0.00,40.00,0,-999,0,0.00
2013-4-17,46,42,36,-100,-100,-100,0,0,100,0.00,40.00,0,-999,0,0.00
2013-4-18,42,37,30,-100,-100,-100,0,0,100,0.00,40.00,0,-999,0,0.00
2013-4-19,43,34,26,-100,-100,-100,0,0,100,0.00,40.00,0,-999,0,0.00
2013-4-20,51,36,23,-100,-100,-100,0,0,100,0.00,40.00,0,-999,0,0.00
2013-4-21,73,54,38,-100,-100,-100,0,0,100,0.00,40.00,0,-999,0,0.00
2013-4-22,71,56,45,-100,-100,-100,0,0,100,0.00,40.00,0,-999,0,0.00
2013-4-23,42,34,31,-100,-100,-100,0,0,100,0.00,40.00,0,-999,0,0.00
2013-4-24,58,46,26,-100,-100,-100,0,0,100,0.00,40.00,0,-999,0,0.00
2013-4-25,67,51,30,-100,-100,-100,0,0,100,0.00,40.00,0,-999,0,0.00
2013-4-26,70,60,51,-100,-100,-100,0,0,100,0.00,40.00,0,-999,0,0.00
2013-4-27,70,59,42,-100,-100,-100,0,0,100,0.00,40.00,0,-999,0,0.00
2013-4-28,81,60,42,-100,-100,-100,0,0,100,0.00,40.00,0,-999,0,0.00
2013-4-29,87,72,54,-100,-100,-100,0,0,100,0.00,40.00,0,-999,0,0.00
2013-4-30,90,80,71,-100,-100,-100,0,0,100,0.00,40.00,0,-999,0,0.00
2013-5-1,62,57,41,-100,-100,-100,0,0,100,0.00,40.00,0,-999,0,0.00
2013-5-2,39,33,30,-100,-100,-100,0,0,100,0.00,40.00,0,-999,0,0.00
2013-5-3,36,32,30,-100,-100,-100,0,0,100,0.00,40.00,0,-999,0,0.00
2013-5-4,51,40,33,-100,-100,-100,0,0,100,0.00,40.00,0,-999,0,0.00
2013-5-5,66,50,42,-100,-100,-100,0,0,100,0.00,40.00,0,-999,0,0.00
2013-5-6,78,60,47,-100,-100,-100,0,0,100,0.00,40.00,0,-999,0,0.00
2013-5-7,83,68,51,-100,-100,-100,0,0,100,0.00,40.00,0,-999,0,0.00
2013-5-8,76,64,54,-100,-100,-100,0,0,100,0.00,40.00,0,-999,0,0.00
2013-5-9,74,63,58,-100,-100,-100,0,0,100,0.00,40.00,0,-999,0,0.00
2013-5-10,70,59,51,-100,-100,-100,0,0,100,0.00,40.00,0,-999,0,0.00
2013-5-11,61,55,50,-100,-100,-100,0,0,100,0.00,40.00,0,-999,0,0.00
2013-5-12,65,52,32,-100,-100,-100,0,0,100,0.00,40.00,0,-999,0,0.00
2013-5-13,82,67,39,-100,-100,-100,0,0,100,0.00,40.00,0,-999,0,0.00
2013-5-14,98,80,62,-100,-100,-100,0,0,100,0.00,40.00,0,-999,0,0.00
2013-5-15,87,79,68,-100,-100,-100,0,0,100,0.00,40.00,0,-999,0,0.00
2013-5-16,86,76,65,-100,-100,-100,0,0,100,0.00,40.00,0,-999,0,0.00
2013-5-17,85,76,67,-100,-100,-100,0,0,100,0.00,40.00,0,-999,0,0.00
2013-5-18,87,77,63,-100,-100,-100,0,0,100,0.00,40.00,0,-999,0,0.00
2013-5-19,91,84,72,-100,-100,-100,0,0,100,0.00,40.00,0,-999,0,0.00
2013-5-20,85,71,63,-100,-100,-100,0,0,100,0.00,40.00,0,-999,0,0.00
2013-5-21,76,68,61,-100,-100,-100,0,0,100,0.00,40.00,0,-999,0,0.00
2013-5-22,68,61,57,-100,-100,-100,0,0,100,0.00,40.00,0,-999,0,0.00
2013-5-23,73,64,54,-100,-100,-100,0,0,100,0.00,40.00,0,-999,0,0.00
2013-5-24,76,65,49,-100,-100,-100,0,0,100,0.00,40.00,0,-999,0,0.00
2013-5-25,60,57,53,-100,-100,-100,0,0,100,0.00,40.00,0,-999,0,0.00
2013-5-26,65,59,52,-100,-100,-100,0,0,100,0.00,40.00,0,-999,0,0.00
2013-5-27,80,68,62,-100,-100,-100,0,0,100,0.00,40.00,0,-999,0,0.00
2013-5-28,84,75,68,-100,-100,-100,0,0,100,0.00,40.00,0,-999,0,0.00
2013-5-29,87,75,67,-100,-100,-100,0,0,100,0.00,40.00,0,-999,0,0.00
2013-5-30,77,73,66,-100,-100,-100,0,0,100,0.00,40.00,0,-999,0,0.00
2013-5-31,80,76,64,-100,-100,-100,0,0,100,0.00,40.00,0,-999,0,0.00
2013-6-1,71,68,59,-100,-100,-100,0,0,100,0.00,40.00,0,-999,0,0.00
2013-6-2,70,61,55,-100,-100,-100,0,0,100,0.00,40.00,0,-999,0,0.00
2013-6-3,76,63,49,-100,-100,-100,0,0,100,0.00,40.00,0,-999,0,0.00
2013-6-4,72,64,57,-100,-100,-100,0,0,100,0.00,40.00,0,-999,0,0.00
2013-6-5,73,67,63,-100,-100,-100,0,0,100,0.00,40.00,0,-999,0,0.00
2013-6-6,75,66,53,-100,-100,-100,0,0,100,0.00,40.00,0,-999,0,0.00
2013-6-7,74,61,54,-100,-100,-100,0,0,100,0.00,40.00,0,-999,0,0.00
2013-6-8,81,65,52,-100,-100,-100,0,0,100,0.00,40.00,0,-999,0,0.00
2013-6-9,78,71,65,-100,-100,-100,0,0,100,0.00,40.00,0,-999,0,0.00
2013-6-10,82,72,61,-100,-100,-100,0,0,100,0.00,40.00,0,-999,0,0.00
2013-6-11,86,77,65,-100,-100,-100,0,0,100,0.00,40.00,0,-999,0,0.00
2013-6-12,93,82,69,-100,-100,-100,0,0,100,0.00,40.00,0,-999,0,0.00
2013-6-13,88,79,65,-100,-100,-100,0,0,100,0.00,40.00,0,-999,0,0.00
2013-6-14,78,72,68,-100,-100,-100,0,0,100,0.00,40.00,0,-999,0,0.00
2013-6-15,83,76,67,-100,-100,-100,0,0,100,0.00,40.00,0,-999,0,0.00
2013-6-16,89,80,70,-100,-100,-100,0,0,100,0.00,40.00,0,-999,0,0.00
2013-6-17,92,79,65,-100,-100,-100,0,0,100,0.00,40.00,0,-999,0,0.00
2013-6-18,88,80,66,-100,-100,-100,0,0,100,0.00,40.00,0,-999,0,0.00
2013-6-19,90,78,69,-100,-100,-100,0,0,100,0.00,40.00,0,-999,0,0.00
2013-6-20,92,77,69,-100,-100,-100,0,0,100,0.00,40.00,0,-999,0,0.00
2013-6-22,96,92,89,-100,-100,-100,0,0,100,0.00,40.00,0,-999,0,0.00
2013-6-23,84,78,70,-100,-100,-100,0,0,100,0.00,40.00,0,-999,0,0.00
2013-6-24,80,77,72,-100,-100,-100,0,0,100,0.00,40.00,0,-999,0,0.00
2013-6-25,92,84,73,-100,-100,-100,0,0,100,0.00,40.00,0,-999,0,0.00
2013-6-26,94,84,78,-100,-100,-100,0,0,100,0.00,40.00,0,-999,0,0.00
2013-6-27,89,80,71,-100,-100,-100,0,0,100,0.00,40.00,0,-999,0,0.00
2013-6-28,90,85,76,-100,-100,-100,0,0,100,0.00,40.00,0,-999,0,0.00
2013-6-29,80,74,70,-100,-100,-100,0,0,100,0.00,40.00,0,-999,0,0.00
2013-6-30,82,73,63,-100,-100,-100,0,0,100,0.00,40.00,0,-999,0,0.00
2013-7-1,85,74,61,-100,-100,-100,0,0,100,0.00,40.00,0,-999,0,0.00
2013-7-2,87,73,63,-100,-100,-100,0,0,100,0.00,40.00,0,-999,0,0.00
2013-7-3,83,72,60,-100,-100,-100,0,0,100,0.00,40.00,0,-999,0,0.00
2013-7-4,89,80,62,-100,-100,-100,0,0,100,0.00,40.00,0,-999,0,0.00
2013-7-5,92,80,69,-100,-100,-100,0,0,100,0.00,40.00,0,-999,0,0.00
2013-7-6,94,82,72,-100,-100,-100,0,0,100,0.00,40.00,0,-999,0,0.00
2013-7-7,96,86,73,-100,-100,-100,0,0,100,0.00,40.00,0,-999,0,0.00
2013-7-8,91,83,80,-100,-100,-100,0,0,100,0.00,40.00,0,-999,0,0.00
2013-7-9,97,85,79,-100,-100,-100,0,0,100,0.00,40.00,0,-999,0,0.00
2013-7-10,88,83,74,-100,-100,-100,0,0,100,0.00,40.00,0,-999,0,0.00
2013-7-11,88,78,64,-100,-100,-100,0,0,100,0.00,40.00,0,-999,0,0.00
2013-7-12,91,76,65,-100,-100,-100,0,0,100,0.00,40.00,0,-999,0,0.00
2013-7-13,85,78,66,-100,-100,-100,0,0,100,0.00,40.00,0,-999,0,0.00
2013-7-14,89,80,68,-100,-100,-100,0,0,100,0.00,40.00,0,-999,0,0.00
2013-7-15,93,82,71,-100,-100,-100,0,0,100,0.00,40.00,0,-999,0,0.00
2013-7-16,95,88,78,-100,-100,-100,0,0,100,0.00,40.00,0,-999,0,0.00
2013-7-17,98,88,78,-100,-100,-100,0,0,100,0.00,40.00,0,-999,0,0.00
2013-7-18,98,90,80,-100,-100,-100,0,0,100,0.00,40.00,0,-999,0,0.00
2013-7-19,98,92,81,-100,-100,-100,0,0,100,0.00,40.00,0,-999,0,0.00
2013-7-20,92,82,68,-100,-100,-100,0,0,100,0.00,40.00,0,-999,0,0.00
2013-7-21,83,75,69,-100,-100,-100,0,0,100,0.00,40.00,0,-999,0,0.00
2013-7-22,96,82,69,-100,-100,-100,0,0,100,0.00,40.00,0,-999,0,0.00
2013-7-23,81,74,69,-100,-100,-100,0,0,100,0.00,40.00,0,-999,0,0.00
2013-7-24,83,72,62,-100,-100,-100,0,0,100,0.00,40.00,0,-999,0,0.00
2013-7-25,91,74,64,-100,-100,-100,0,0,100,0.00,40.00,0,-999,0,0.00
2013-7-26,84,77,70,-100,-100,-100,0,0,100,0.00,40.00,0,-999,0,0.00
2013-7-27,69,64,60,-100,-100,-100,0,0,100,0.00,40.00,0,-999,0,0.00
2013-7-28,81,67,52,-100,-100,-100,0,0,100,0.00,40.00,0,-999,0,0.00
2013-7-29,81,71,58,-100,-100,-100,0,0,100,0.00,40.00,0,-999,0,0.00
2013-7-30,74,71,67,-100,-100,-100,0,0,100,0.00,40.00,0,-999,0,0.00
2013-7-31,88,75,69,-100,-100,-100,0,0,100,0.00,40.00,0,-999,0,0.00
2013-8-1,92,82,65,-100,-100,-100,0,0,100,0.00,40.00,0,-999,0,0.00
2013-8-2,82,75,71,-100,-100,-100,0,0,100,0.00,40.00,0,-999,0,0.00
2013-8-3,84,74,67,-100,-100,-100,0,0,100,0.00,40.00,0,-999,0,0.00
2013-8-4,87,72,58,-100,-100,-100,0,0,100,0.00,40.00,0,-999,0,0.00
2013-8-5,86,75,68,-100,-100,-100,0,0,100,0.00,40.00,0,-999,0,0.00
2013-8-6,93,78,70,-100,-100,-100,0,0,100,0.00,40.00,0,-999,0,0.00
2013-8-7,85,79,71,-100,-100,-100,0,0,100,0.00,40.00,0,-999,0,0.00
2013-8-8,85,76,65,-100,-100,-100,0,0,100,0.00,40.00,0,-999,0,0.00
2013-8-9,86,76,67,-100,-100,-100,0,0,100,0.00,40.00,0,-999,0,0.00
2013-8-10,83,71,59,-100,-100,-100,0,0,100,0.00,40.00,0,-999,0,0.00
2013-8-11,91,82,68,-100,-100,-100,0,0,100,0.00,40.00,0,-999,0,0.00
2013-8-12,86,76,69,-100,-100,-100,0,0,100,0.00,40.00,0,-999,0,0.00
2013-8-13,83,70,60,-100,-100,-100,0,0,100,0.00,40.00,0,-999,0,0.00
2013-8-14,80,67,57,-100,-100,-100,0,0,100,0.00,40.00,0,-999,0,0.00
2013-8-15,76,66,61,-100,-100,-100,0,0,100,0.00,40.00,0,-999,0,0.00
2013-8-16,83,70,52,-100,-100,-100,0,0,100,0.00,40.00,0,-999,0,0.00
2013-8-17,87,70,54,-100,-100,-100,0,0,100,0.00,40.00,0,-999,0,0.00
2013-8-18,87,75,58,-100,-100,-100,0,0,100,0.00,40.00,0,-999,0,0.00
2013-8-19,89,73,60,-100,-100,-100,0,0,100,0.00,40.00,0,-999,0,0.00
2013-8-20,94,80,71,-100,-100,-100,0,0,100,0.00,40.00,0,-999,0,0.00
2013-8-21,96,85,74,-100,-100,-100,0,0,100,0.00,40.00,0,-999,0,0.00
2013-8-22,86,80,75,-100,-100,-100,0,0,100,0.00,40.00,0,-999,0,0.00
2013-8-23,91,76,69,-100,-100,-100,0,0,100,0.00,40.00,0,-999,0,0.00
2013-8-24,94,82,73,-100,-100,-100,0,0,100,0.00,40.00,0,-999,0,0.00
2013-8-25,98,88,75,-100,-100,-100,0,0,100,0.00,40.00,0,-999,0,0.00
2013-8-26,99,89,76,-100,-100,-100,0,0,100,0.00,40.00,0,-999,0,0.00
2013-8-27,98,88,80,-100,-100,-100,0,0,100,0.00,40.00,0,-999,0,0.00
2013-8-28,102,95,85,-100,-100,-100,0,0,100,0.00,40.00,0,-999,0,0.00
2013-8-29,99,88,74,-100,-100,-100,0,0,100,0.00,40.00,0,-999,0,0.00
2013-8-30,105,92,76,-100,-100,-100,0,0,100,0.00,40.00,0,-999,0,0.00
2013-8-31,95,87,79,-100,-100,-100,0,0,100,0.00,40.00,0,-999,0,0.00
2013-9-1,87,81,73,-100,-100,-100,0,0,100,0.00,40.00,0,-999,0,0.00
2013-9-2,82,70,61,-100,-100,-100,0,0,100,0.00,40.00,0,-999,0,0.00
2013-9-3,85,66,51,-100,-100,-100,0,0,100,0.00,40.00,0,-999,0,0.00
2013-9-4,94,76,58,-100,-100,-100,0,0,100,0.00,40.00,0,-999,0,0.00
2013-9-5,94,79,69,-100,-100,-100,0,0,100,0.00,40.00,0,-999,0,0.00
2013-9-6,96,80,68,-100,-100,-100,0,0,100,0.00,40.00,0,-999,0,0.00
2013-9-7,99,87,76,-100,-100,-100,0,0,100,0.00,40.00,0,-999,0,0.00
2013-9-8,93,86,74,-100,-100,-100,0,0,100,0.00,40.00,0,-999,0,0.00
2013-9-9,103,89,75,-100,-100,-100,0,0,100,0.00,40.00,0,-999,0,0.00
2013-9-10,100,89,75,-100,-100,-100,0,0,100,0.00,40.00,0,-999,0,0.00
2013-9-11,90,81,76,-100,-100,-100,0,0,100,0.00,40.00,0,-999,0,0.00
2013-9-12,83,74,67,-100,-100,-100,0,0,100,0.00,40.00,0,-999,0,0.00
2013-9-13,78,65,51,-100,-100,-100,0,0,100,0.00,40.00,0,-999,0,0.00
2013-9-14,83,63,42,-100,-100,-100,0,0,100,0.00,40.00,0,-999,0,0.00
2013-9-15,70,67,62,-100,-100,-100,0,0,100,0.00,40.00,0,-999,0,0.00
2013-9-16,65,58,52,-100,-100,-100,0,0,100,0.00,40.00,0,-999,0,0.00
2013-9-17,66,58,54,-100,-100,-100,0,0,100,0.00,40.00,0,-999,0,0.00
2013-9-18,82,74,67,-100,-100,-100,0,0,100,0.00,40.00,0,-999,0,0.00
2013-9-19,88,80,68,-100,-100,-100,0,0,100,0.00,40.00,0,-999,0,0.00
2013-9-20,73,66,57,-100,-100,-100,0,0,100,0.00,40.00,0,-999,0,0.00
2013-9-21,76,58,43,-100,-100,-100,0,0,100,0.00,40.00,0,-999,0,0.00
2013-9-22,83,62,47,-100,-100,-100,0,0,100,0.00,40.00,0,-999,0,0.00
2013-9-23,81,68,49,-100,-100,-100,0,0,100,0.00,40.00,0,-999,0,0.00
2013-9-24,77,67,54,-100,-100,-100,0,0,100,0.00,40.00,0,-999,0,0.00
2013-9-25,83,72,55,-100,-100,-100,0,0,100,0.00,40.00,0,-999,0,0.00
2013-9-26,90,76,59,-100,-100,-100,0,0,100,0.00,40.00,0,-999,0,0.00
2013-9-27,91,79,67,-100,-100,-100,0,0,100,0.00,40.00,0,-999,0,0.00
2013-9-28,72,67,56,-100,-100,-100,0,0,100,0.00,40.00,0,-999,0,0.00
2013-9-29,80,69,47,-100,-100,-100,0,0,100,0.00,40.00,0,-999,0,0.00
2013-9-30,80,61,46,-100,-100,-100,0,0,100,0.00,40.00,0,-999,0,0.00
2013-10-1,85,78,66,-100,-100,-100,0,0,100,0.00,40.00,0,-999,0,0.00
2013-10-2,90,71,58,-100,-100,-100,0,0,100,0.00,40.00,0,-999,0,0.00
2013-10-3,84,72,66,-100,-100,-100,0,0,100,0.00,40.00,0,-999,0,0.00
2013-10-4,80,73,65,-100,-100,-100,0,0,100,0.00,40.00,0,-999,0,0.00
2013-10-5,75,58,48,-100,-100,-100,0,0,100,0.00,40.00,0,-999,0,0.00
2013-10-6,47,46,41,-100,-100,-100,0,0,100,0.00,40.00,0,-999,0,0.00
2013-10-7,78,61,38,-100,-100,-100,0,0,100,0.00,40.00,0,-999,0,0.00
2013-10-8,82,64,50,-100,-100,-100,0,0,100,0.00,40.00,0,-999,0,0.00
2013-10-9,78,62,47,-100,-100,-100,0,0,100,0.00,40.00,0,-999,0,0.00
2013-10-10,81,62,45,-100,-100,-100,0,0,100,0.00,40.00,0,-999,0,0.00
2013-10-11,77,67,53,-100,-100,-100,0,0,100,0.00,40.00,0,-999,0,0.00
2013-10-12,71,60,50,-100,-100,-100,0,0,100,0.00,40.00,0,-999,0,0.00
2013-10-13,70,57,40,-100,-100,-100,0,0,100,0.00,40.00,0,-999,0,0.00
2013-10-14,66,59,41,-100,-100,-100,0,0,100,0.00,40.00,0,-999,0,0.00
2013-10-15,60,52,46,-100,-100,-100,0,0,100,0.00,40.00,0,-999,0,0.00
2013-10-16,49,44,39,-100,-100,-100,0,0,100,0.00,40.00,0,-999,0,0.00
2013-10-17,65,57,46,-100,-100,-100,0,0,100,0.00,40.00,0,-999,0,0.00
2013-10-18,50,45,40,-100,-100,-100,0,0,100,0.00,40.00,0,-999,0,0.00
2013-10-19,58,44,32,-100,-100,-100,0,0,100,0.00,40.00,0,-999,0,0.00
2013-10-20,63,59,44,-100,-100,-100,0,0,100,0.00,40.00,0,-999,0,0.00
2013-10-21,50,43,34,-100,-100,-100,0,0,100,0.00,40.00,0,-999,0,0.00
2013-10-22,39,37,32,-100,-100,-100,0,0,100,0.00,40.00,0,-999,0,0.00
2013-10-23,36,34,32,-100,-100,-100,0,0,100,0.00,40.00,0,-999,0,0.00
2013-10-24,40,38,33,-100,-100,-100,0,0,100,0.00,40.00,0,-999,0,0.00
2013-10-25,57,48,42,-100,-100,-100,0,0,100,0.00,40.00,0,-999,0,0.00
2013-10-26,54,45,40,-100,-100,-100,0,0,100,0.00,40.00,0,-999,0,0.00
2013-10-27,66,53,45,-100,-100,-100,0,0,100,0.00,40.00,0,-999,0,0.00
2013-10-28,58,45,38,-100,-100,-100,0,0,100,0.00,40.00,0,-999,0,0.00
2013-10-29,57,43,35,-100,-100,-100,0,0,100,0.00,40.00,0,-999,0,0.00
2013-10-30,62,54,51,-100,-100,-100,0,0,100,0.00,40.00,0,-999,0,0.00
2013-10-31,58,46,40,-100,-100,-100,0,0,100,0.00,40.00,0,-999,0,0.00
2013-11-1,54,45,36,-100,-100,-100,0,0,100,0.00,40.00,0,-999,0,0.00
2013-11-2,56,46,40,-100,-100,-100,0,0,100,0.00,40.00,0,-999,0,0.00
2013-11-3,58,53,48,-100,-100,-100,0,0,100,0.00,40.00,0,-999,0,0.00
2013-11-4,53,48,42,-100,-100,-100,0,0,100,0.00,40.00,0,-999,0,0.00
2013-11-5,57,46,41,-100,-100,-100,0,0,100,0.00,40.00,0,-999,0,0.00
2013-11-6,48,38,31,-100,-100,-100,0,0,100,0.00,40.00,0,-999,0,0.00
2013-11-7,46,43,38,-100,-100,-100,0,0,100,0.00,40.00,0,-999,0,0.00
2013-11-8,61,52,43,-100,-100,-100,0,0,100,0.00,40.00,0,-999,0,0.00
2013-11-9,60,50,39,-100,-100,-100,0,0,100,0.00,40.00,0,-999,0,0.00
2013-11-10,51,45,39,-100,-100,-100,0,0,100,0.00,40.00,0,-999,0,0.00
2013-11-11,45,40,28,-100,-100,-100,0,0,100,0.00,40.00,0,-999,0,0.00
2013-11-12,25,23,20,-100,-100,-100,0,0,100,0.00,40.00,0,-999,0,0.00
2013-11-13,49,43,40,-100,-100,-100,0,0,100,0.00,40.00,0,-999,0,0.00
2013-11-14,51,45,40,-100,-100,-100,0,0,100,0.00,40.00,0,-999,0,0.00
2013-11-15,58,46,35,-100,-100,-100,0,0,100,0.00,40.00,0,-999,0,0.00
2013-11-16,69,59,42,-100,-100,-100,0,0,100,0.00,40.00,0,-999,0,0.00
2013-11-17,55,48,40,-100,-100,-100,0,0,100,0.00,40.00,0,-999,0,0.00
2013-11-18,45,41,29,-100,-100,-100,0,0,100,0.00,40.00,0,-999,0,0.00
2013-11-19,53,44,38,-100,-100,-100,0,0,100,0.00,40.00,0,-999,0,0.00